Location: Unspecified
(43.4354°N, 0.0000°E)
Time: 20:48:00
(UTC+00:00)

Courier 1B - Pass Details

Date: 19 June 2019
Orbit: 963 x 1209 km, 28.3° (Epoch: 19 July)

Event Time Altitude Azimuth Distance (km) Brightness Sun altitude
Rises 23:00:53 0° 254° (WSW) 4,054 10.7 -21.7°
Reaches altitude 10° 23:04:27 10° 239° (WSW) 3,115 10.0 -21.9°
Enters shadow 23:07:19 18° 219° (SW) 2,579 9.4 -22.0°
Maximum altitude 23:09:57 21° 194° (SSW) 2,398 - -22.1°
Drops below altitude 10° 23:15:30 10° 148° (SSE) 3,136 - -22.3°
Sets 23:19:07 0° 133° (SE) 4,088 - -22.4°
